Погода в Ейске

Погода в Ейске : погода сейчас, прогноз погоды и архив. Всё, что Вы хотите узнать о погоде в Ейске!

Хотите узнать прогноз погоды в Ейске? Тогда Вам сюда: Погода в Ейске

Поиск расширенной информации на нашем сайте:

Другие новости

Новости СМИ2

Главная страница сайта

Новости сайта

03.07.2017

Напоминаем, что на нашем специализированном сайте Метеоцентр.Азия вы можете получить высокодетализированные автоматические прогнозы погоды по пунктам России, СНГ и мира в авиационном формате (включающие направление и скорость ветра, видимость, явления погоды, количество и форму облачности, нижнюю и верхнюю границу облачности).


Погода в Ейске - сегодня

Время (UTC), дата Ветер
(°,м/с) 
Видим.   Явления Облачность Т
(°С)
Тd
(°С)
f(%) Тe
(°С)
Pmin
(гПа)
dP
(гПа)
Po
(мм)
O2
(г/м3)
Тmin Tmax R s Состояние
почвы
09 20.01.18 150 (ЮВ) 4000 м  слаб. ливневой дождь  10/10 300 м кучево-дожд. 
[Cb calv]
+0.5 +0.3 99 -2  1017.4  -1.3  761  306           
12 20.01.18 140 (ЮВ) 4000 м  дымка{ливн. осадки}  10/10 300 м кучево-дожд. 
[Cb calv]
+1.5 +1 96 -1  1016.1  -1.3  760  304           
15 20.01.18 150 (ЮВ) 4000 м  дымка  10/10 300 м кучево-дожд. 
[Cb calv]
+2 +1.6 97 1015.8  -0.3  760  304    +2.4       
18 20.01.18 160 (Ю) 4000 м  дымка  10/10 300 м 
[Sc diur, vesp]
+3 +2 93 1014.6  -1.1  759  302           
21 20.01.18 150 (ЮВ) 10 км    8/8 300 м 
[Sc diur, vesp]
+2.8 +1.2 89 1012.9  -1.8  757  302           
00 21.01.18 150 (ЮВ) 10 км    10/10 300 м 
[Sc diur, vesp]
+2.6 +1.2 90 1010.8  -2.1  756  301           
03 21.01.18 170 (Ю) 10 км    10/10 300 м 
[Sc diur, vesp]
+3.4 +2 91 1008.6  -2.1  754  300  +2         
06 21.01.18 190 (Ю) 7{10}  4000 м  слаб. ливневой дождь  10/10 300 м кучево-дожд. 
[Cb calv]
+3.9 +3 94 +1  1007.9  -0.7  754  299           
09 21.01.18 160 (Ю) 6{10}  4000 м  слаб. ливневой дождь  10/10 300 м кучево-дожд. 
[Cb calv]
+4.4 +4.1 98 +2  1005.8  -2.1  752  298           
12 21.01.18 290 (З) 9-12{18}  4000 м  дымка{ливн. осадки}  8/8 300 м 
[Sc diur, vesp]
+1.7 +1.4 98 -2  1009.3  3.5  755  302           
15 21.01.18 290 (З) 4{12}  10 км    3/0 верхняя 
[Ci fib]
+0.3 -0.7 93 -2  1015.1  5.7  759  306    +6.6     
18 21.01.18 280 (З) 10 км    10/10 300 м 
[Sc]
+0 -0.8 94 -2  1017.7  2.6  761  307           
21 21.01.18 040 (СВ) 10 км    5/5 300 м 
[Sc]
-0.6 -1.8 92 -4  1016.5  -1.2  760  307           
00 22.01.18 070 (В) 10 км    10/10 300 м 
[Sc]
-0.8 -2.2 90 -3  1015.8  -0.7  760  307           
03 22.01.18 100 (В) 10 км    10/10 300 м 
[Sc]
-0.8 -1.8 93 -4  1014.9  -0.9  759  307  -0.9         
06 22.01.18 080 (В) 6{10}  1000 м  ливневой снег  10/10 300 м кучево-дожд. 
[Cb calv]
-0.9 -1.3 97 -5  1013.7  -1.1  758  307  -0.9         
09 22.01.18 060 (СВ) 7-11{11}  1000 м  ливневой снег  10/10 300 м 
[Sc diur, vesp]
-1.7 -1.8 99 -6  1011.4  -2.3  756  307           
12 22.01.18 080 (В) 7-13{13}  4000 м  дымка{ливн. осадки}  10/10 300 м кучево-дожд. 
[Cb calv]
-0.6 -1.3 95 -5  1009.1  -2.3  755  305           
15 22.01.18 090 (В) 4000 м  слаб. ливневой дождь  10/10 300 м кучево-дожд. 
[Cb calv]
+0.2 -0.1 98 -4  1008.3  -0.7  754  304    +0.2     
18 22.01.18 110 (В) 8-13{15}  10 км  в посл. час ливневой дождь  10/10 300 м кучево-дожд. 
[Cb calv]
+0.6 +0.2 97 -4  1007.2  -1.1  753  303           
21 22.01.18 110 (В) 6-10{14}  10 км  {ливн. осадки}  10/10 300 м 
[Sc diur, vesp]
+0.8 +0.5 98 -3  1006.3  -0.9  752  302           
00 23.01.18 110 (В) 6-10{11}  10 км  в посл. час ливневой дождь  10/10 300 м кучево-дожд. 
[Cb calv]
+0.9 +0.2 95 -2  1006.1  -0.2  752  302           
03 23.01.18 120 (ЮВ) 10 км    10/10 300 м 
[Sc diur, vesp]
+1.1 +0.4 95 -2  1005.2  -0.8  752  302  +0.2    мокрый или
старый снег
50-90% 
06 23.01.18 070 (В) 10 км    10/10 300 м кучево-дожд. 
[Cb calv]
+1.3 +0.3 93 +1  1006.1  0.9  752  302           
09 23.01.18 110 (В) 4000 м  в посл. час ливневой дождь  10/10 300 м кучево-дожд. 
[Cb calv]
+1.5 +0.9 96 +1  1006.9  0.8  753  302           
Время (UTC), дата Ветер
(°,м/с) 
Видим.   Явления Облачность Т
(°С)
Тd
(°С)
f(%) Тe
(°С)
Pmin
(гПа)
dP
(гПа)
Po
(мм)
O2
(г/м3)
Тmin Tmax R s Состояние
почвы

Для получения пояснительной информации подведите курсор к названию столбца.

ПОГОДА в Ейске - архив

Всё, что Вы хотите узнать о погоде в Ейске - удобно и подробно!

Выберите нужную дату (начиная с 1 января 2015* года) и нажмите кнопку "Найти".
Будут отображены архивные сводки погоды по пункту Ейск, начиная с указанной даты.


Отображать данные в формате CSV (для использования в таблицах Excel)


Внимание! Наш архив погоды предназначен исключительно для личного некоммерческого использования в познавательных целях. Если Вам необходимы официальные справки о состоянии погоды (для производственных, юридических, коммерческих и т.п. целей), обращайтесь в органы Росгидромета.

*Примечание: данная дата относится к архиву по метеостанциям СССР (Россия, СНГ, Балтия).
Архив по метеостанциям Зарубежной Европы и Азии (кроме Китая) хранится 10 дней, по другим регионам земного шара (Китай, Африка, Америка, Австралия, Океания) - 1 день.

Ейск - район местоположения метеостанции


Название, широта, долгота, высота метеостанции:
Ейск 46.8°ш. 38.3°д. 3 м над ур. моря [Российская Федерация]

Дополнительная информация

В oтличие oт бoльшинства пoгoдных сайтoв мы публикуем пoдрoбную метеoинфoрмацию в детальнoм прoфессиoнальнoм фoрмате.

Характеристики температуры и влажнoсти вoздуха измеряются на высoте 2 м в тени вдали oт зданий и деревьев.
Скoрoсть ветра измеряется на высoте 10 м (на урoвне рoста челoвека скoрoсть ветра ниже в 1.5-2 раза). Если метеoстанция нахoдится в гoрoде или в лесу, тo скoрoсть ветра занижена на 2-4 м/с пo сравнению с oткрытым местoм. Скoрoсть ветра над акватoриями крупных рек и oзёр, а также на вершинах хoлмoв на 2-5 м/с выше, чем в oбычных услoвиях.
Атмoсфернoе давление в разных тoчках местнoсти мoжет значительнo oтличаться oт давления на метеoстанции, в зависимoсти oт услoвий рельефа (при пoдъёме на 10 м давление пoнижается примернo на 1 мм рт.ст.).